User: anonymous   Login
Location: Unspecified
(52.0178°N, 0.0000°E)
Time: 19:28:16
(UTC+00:00)
Language:

UNISAT 6 - Orbit

View from above orbital plane
View from above orbital plane
View from above satellite
View from above satellite

Ground track
Ground track

The orbit data is extracted from the following two-line orbital elements,

1 40012U 14033C   19200.15590921  .00000101  00000-0  22463-4 0  9995
2 40012  97.7538  65.4492 0058455   1.1177 359.0152 14.73986381273177
Epoch (UTC): 19 July 2019 03:44:30
Eccentricity: 0.0058455
inclination: 97.7538°
perigee height: 607 km
apogee height: 689 km
right ascension of ascending node: 65.4492°
argument of perigee: 1.1177°
revolutions per day: 14.73986381
mean anomaly at epoch: 359.0152°
orbit number at epoch: 27317

The dashed part of the orbit path shows where the satellite is in the earth's shadow,  

DLR